{"data":{"norad_id":37791,"intl_designator":"2011-044D","name":"RASAT","alt_names":[],"object_type":"PAYLOAD","status":"ACTIVE","operator":null,"country":"TURK","launch_date":"2011-08-17","launch_site_code":"DLS","launch_vehicle":null,"mission":null,"orbit_class":"UNKNOWN","rcs_meters":0.581,"size_class":null,"mass_kg":null,"dimensions":null,"purposes":["earth_obs"],"wikipedia_slug":null,"has_3d_model":false,"image_url":null,"decayed_at":null,"tle_current":{"epoch":"2026-05-25T05:08:19.940352Z","epoch_age_seconds":56320,"freshness":"FRESH","line1":"1 37791U 11044D   26145.21411968  .00000025  00000+0  12815-4 0  9994","line2":"2 37791  98.0558 236.9623 0019187 265.1993 179.6749 14.68139188789811","mean_motion":14.68139188,"eccentricity":0.0019187,"inclination_deg":98.0558,"raan_deg":236.9623,"arg_perigee_deg":265.1993,"mean_anomaly_deg":179.6749,"bstar":1.2815e-5,"rev_number":78981,"period_min":98.083343307637,"perigee_km":653.49724662029,"apogee_km":680.53231205833,"semimajor_km":7045.1517793393,"source":"CELESTRAK","updated_at":"2026-05-25T13:38:12.779329Z"}}}